Overview Statistics Trail Chart Weather Telemetry Raw packets
 

This is the latest recevied weather packets stored in our database for station/object OE6JUE. If no packets are shown the sender has not sent any weather packets the latest 10 day(s).

<< 74 75 76 77 78 79 80 >>
Time Temp. Humidity Pressure Rain* Wind** Luminosity Snow
1788156220 25° C 63% 1017 hPa 0 mm - - -
1788155919 25° C 67% 1017.1 hPa 0 mm - - -
1788155619 24.44° C 70% 1017 hPa 0 mm - - -
1788155320 22.78° C 72% 1017 hPa 0 mm - - -
1788155019 22.22° C 75% 1016.9 hPa 0 mm - - -
1788154719 21.67° C 80% 1017 hPa 0 mm - - -
1788154420 20.56° C 82% 1017.1 hPa 0 mm - - -
1788154120 19.44° C 85% 1017 hPa 0 mm - - -
1788153820 18.33° C 86% 1017 hPa 0 mm - - -
1788153520 17.78° C 86% 1016.9 hPa 0 mm - - -
1788153219 17.22° C 91% 1016.9 hPa 0 mm - - -
1788152919 16.67° C 93% 1016.9 hPa 0 mm - - -
1788152620 16.11° C 93% 1017 hPa 0 mm - - -
1788152319 16.11° C 93% 1016.9 hPa 0 mm - - -
1788152019 15.56° C 93% 1017.1 hPa 0 mm - - -
1788151719 15° C 93% 1017.1 hPa 0 mm - - -
1788151419 15° C 92% 1017.1 hPa 0 mm - - -
1788151119 14.44° C 92% 1017 hPa 0 mm - - -
1788150819 14.44° C 92% 1017.1 hPa 0 mm - - -
1788150519 14.44° C 91% 1016.9 hPa 0 mm - - -
1788150219 13.89° C 91% 1017.1 hPa 0 mm - - -
1788149919 13.89° C 91% 1017 hPa 0 mm - - -
1788149620 13.89° C 90% 1017 hPa 0 mm - - -
1788149319 14.44° C 91% 1016.9 hPa 0 mm - - -
1788149020 14.44° C 90% 1017.1 hPa 0 mm - - -

* Rain latest hour (hover to see other rain measurements)
** Current wind speed in m/s (hover to see current wind gust speed)